KLM25B LSGG-EHAM

Flight info

Callsign KLM25B
Flight time 1h 7m
Altitude 34000
Route ARBOS DCT PENDU DCT IXILU DCT GIVOR DCT SORAL DCT IBERA DCT BUB Y28 HELEN
Aircraft B738/M-L/C

Departure

Time 2026-05-05 19:41
Airport Geneva International Airport (LSGG)

Arrival

Time 2026-05-05 20:48
Airport Amsterdam Airport Schiphol (EHAM)
Time Latitude Longitude Altitude Speed Heading
2026-05-05 19:20 46.23057 6.10610 1405 ft 0 kts 135°
2026-05-05 19:29 46.23064 6.10600 1405 ft 4 kts 135°
2026-05-05 19:29 46.23080 6.10577 1402 ft 4 kts 131°
2026-05-05 19:29 46.23089 6.10550 1400 ft 4 kts 66°
2026-05-05 19:30 46.23073 6.10521 1401 ft 4 kts 44°
2026-05-05 19:30 46.23069 6.10516 1402 ft 0 kts 45°
2026-05-05 19:33 46.23070 6.10518 1402 ft 2 kts 45°
2026-05-05 19:33 46.23103 6.10567 1397 ft 12 kts 45°
2026-05-05 19:33 46.23180 6.10680 1399 ft 18 kts 45°
2026-05-05 19:33 46.23267 6.10780 1395 ft 15 kts 15°
2026-05-05 19:34 46.23354 6.10843 1401 ft 14 kts 46°
2026-05-05 19:34 46.23430 6.10955 1395 ft 18 kts 45°
2026-05-05 19:34 46.23522 6.11091 1396 ft 19 kts 45°
2026-05-05 19:35 46.23636 6.11115 1391 ft 8 kts 316°
2026-05-05 19:35 46.23681 6.11065 1389 ft 9 kts 342°
2026-05-05 19:35 46.23741 6.11132 1382 ft 17 kts 46°
2026-05-05 19:35 46.23857 6.11302 1375 ft 27 kts 45°
2026-05-05 19:36 46.23998 6.11507 1371 ft 31 kts 45°
2026-05-05 19:36 46.24161 6.11735 1364 ft 34 kts 44°
2026-05-05 19:36 46.24328 6.11994 1363 ft 36 kts 46°
2026-05-05 19:36 46.24493 6.12236 1371 ft 32 kts 45°
2026-05-05 19:37 46.24622 6.12425 1368 ft 24 kts 45°
2026-05-05 19:37 46.24731 6.12587 1361 ft 19 kts 46°
2026-05-05 19:37 46.24815 6.12674 1362 ft 7 kts 18°
2026-05-05 19:37 46.24857 6.12691 1363 ft 5 kts 15°
2026-05-05 19:38 46.24892 6.12706 1364 ft 5 kts 15°
2026-05-05 19:38 46.24927 6.12720 1366 ft 5 kts 15°
2026-05-05 19:38 46.24961 6.12733 1368 ft 5 kts 14°
2026-05-05 19:38 46.24996 6.12730 1369 ft 5 kts 340°
2026-05-05 19:39 46.25018 6.12694 1370 ft 5 kts 286°
2026-05-05 19:39 46.25004 6.12653 1370 ft 2 kts 224°
2026-05-05 19:39 46.25003 6.12652 1370 ft 0 kts 224°
2026-05-05 19:40 46.25002 6.12650 1370 ft 2 kts 224°
2026-05-05 19:40 46.24866 6.12452 1371 ft 64 kts 225°
2026-05-05 19:40 46.24377 6.11741 1371 ft 132 kts 225°
2026-05-05 19:40 46.23606 6.10609 1536 ft 174 kts 226°
2026-05-05 19:41 46.22739 6.09301 2081 ft 194 kts 227°
2026-05-05 19:41 46.21761 6.07843 2692 ft 205 kts 225°
2026-05-05 19:41 46.20748 6.06376 3411 ft 206 kts 224°
2026-05-05 19:41 46.19727 6.04894 3907 ft 217 kts 224°
2026-05-05 19:42 46.18611 6.03269 4149 ft 240 kts 224°
2026-05-05 19:42 46.17400 6.01500 4674 ft 254 kts 225°
2026-05-05 19:42 46.16180 5.99715 5612 ft 251 kts 225°
2026-05-05 19:42 46.14953 5.97920 6542 ft 252 kts 225°
2026-05-05 19:43 46.13721 5.96075 7339 ft 256 kts 231°
2026-05-05 19:43 46.12986 5.93725 8101 ft 264 kts 257°
2026-05-05 19:43 46.12959 5.91046 8888 ft 273 kts 278°
2026-05-05 19:43 46.13690 5.88496 9722 ft 282 kts 302°
2026-05-05 19:44 46.15149 5.86574 10320 ft 300 kts 326°
2026-05-05 19:44 46.17167 5.85360 10534 ft 328 kts 339°
2026-05-05 19:44 46.19427 5.84355 10809 ft 348 kts 341°
2026-05-05 19:44 46.21790 5.83376 11421 ft 356 kts 341°
2026-05-05 19:45 46.24186 5.82386 12159 ft 359 kts 341°
2026-05-05 19:45 46.26591 5.81371 12946 ft 361 kts 341°
2026-05-05 19:45 46.28994 5.80339 13579 ft 366 kts 340°
2026-05-05 19:45 46.31455 5.79267 14219 ft 370 kts 340°
2026-05-05 19:46 46.33932 5.78177 14884 ft 373 kts 340°
2026-05-05 19:46 46.36424 5.77074 15567 ft 376 kts 340°
2026-05-05 19:46 46.38945 5.75956 16208 ft 380 kts 340°
2026-05-05 19:46 46.41485 5.74827 16842 ft 384 kts 340°
2026-05-05 19:47 46.44053 5.73684 17469 ft 387 kts 340°
2026-05-05 19:47 46.46636 5.72535 18133 ft 390 kts 341°
2026-05-05 19:47 46.49249 5.71371 18676 ft 394 kts 341°
2026-05-05 19:47 46.51884 5.70195 19188 ft 398 kts 341°
2026-05-05 19:48 46.54544 5.68999 19695 ft 402 kts 339°
2026-05-05 19:48 46.57095 5.67451 20190 ft 403 kts 329°
2026-05-05 19:48 46.59541 5.65435 20708 ft 406 kts 327°
2026-05-05 19:48 46.62006 5.63382 21207 ft 410 kts 330°
2026-05-05 19:49 46.64762 5.62160 21633 ft 422 kts 353°
2026-05-05 19:49 46.66721 5.62192 21959 ft 426 kts
2026-05-05 19:49 46.70457 5.64163 22593 ft 432 kts 34°
2026-05-05 19:49 46.72773 5.66976 23061 ft 434 kts 45°
2026-05-05 19:50 46.74954 5.70054 23491 ft 438 kts 45°
2026-05-05 19:50 46.77272 5.72905 23819 ft 444 kts 34°
2026-05-05 19:50 46.79989 5.75090 24181 ft 448 kts 23°
2026-05-05 19:50 46.82946 5.76570 24576 ft 450 kts 13°
2026-05-05 19:51 46.86000 5.77612 24959 ft 452 kts 11°
2026-05-05 19:51 46.89093 5.78590 25306 ft 456 kts 11°
2026-05-05 19:51 46.92199 5.79555 25659 ft 459 kts 11°
2026-05-05 19:51 46.95333 5.80539 26021 ft 461 kts 11°
2026-05-05 19:52 46.98490 5.81551 26374 ft 464 kts 11°
2026-05-05 19:52 47.01625 5.82573 26709 ft 467 kts 12°
2026-05-05 19:52 47.04825 5.83630 27024 ft 470 kts 12°
2026-05-05 19:52 47.08032 5.84698 27363 ft 473 kts 12°
2026-05-05 19:53 47.11215 5.85764 27705 ft 475 kts 12°
2026-05-05 19:53 47.14477 5.86857 28034 ft 477 kts 12°
2026-05-05 19:53 47.17693 5.87936 28354 ft 480 kts 12°
2026-05-05 19:53 47.20955 5.89032 28673 ft 482 kts 12°
2026-05-05 19:54 47.24238 5.90136 28993 ft 484 kts 12°
2026-05-05 19:54 47.27527 5.91242 29298 ft 486 kts 12°
2026-05-05 19:54 47.30831 5.92355 29619 ft 487 kts 12°
2026-05-05 19:54 47.34130 5.93467 30055 ft 485 kts 12°
2026-05-05 19:55 47.37414 5.94576 30511 ft 481 kts 12°
2026-05-05 19:55 47.40670 5.95676 30946 ft 478 kts 12°
2026-05-05 19:55 47.43908 5.96772 31318 ft 477 kts 12°
2026-05-05 19:55 47.47139 5.97867 31660 ft 476 kts 12°
2026-05-05 19:56 47.50330 5.98949 32005 ft 475 kts 12°
2026-05-05 19:56 47.53557 6.00046 32366 ft 473 kts 12°
2026-05-05 19:56 47.56760 6.01135 32729 ft 472 kts 12°
2026-05-05 19:56 47.59959 6.02225 33089 ft 470 kts 12°
2026-05-05 19:57 47.63140 6.03309 33428 ft 469 kts 12°
2026-05-05 19:57 47.65249 6.04029 33637 ft 468 kts 12°
2026-05-05 19:57 47.69493 6.05479 33867 ft 471 kts 12°
2026-05-05 19:58 47.75874 6.07664 33861 ft 472 kts 12°
2026-05-05 19:58 47.82238 6.09850 33848 ft 465 kts 12°
2026-05-05 19:59 47.88529 6.12016 33865 ft 464 kts 12°
2026-05-05 19:59 47.94823 6.14187 33863 ft 463 kts 12°
2026-05-05 20:00 48.01064 6.16343 33862 ft 463 kts 12°
2026-05-05 20:00 48.07420 6.18064 33858 ft 463 kts
2026-05-05 20:01 48.13789 6.19511 33859 ft 462 kts
2026-05-05 20:01 48.20104 6.20984 33856 ft 462 kts
2026-05-05 20:02 48.26467 6.22528 33859 ft 462 kts
2026-05-05 20:02 48.32813 6.24093 33855 ft 461 kts
2026-05-05 20:03 48.39118 6.25655 33850 ft 461 kts
2026-05-05 20:03 48.45452 6.27225 33855 ft 461 kts
2026-05-05 20:04 48.51785 6.28798 33839 ft 460 kts
2026-05-05 20:04 48.58120 6.30375 33830 ft 460 kts
2026-05-05 20:05 48.64415 6.31945 33830 ft 460 kts
2026-05-05 20:05 48.70756 6.33532 33833 ft 460 kts
2026-05-05 20:06 48.77038 6.35108 33830 ft 460 kts
2026-05-05 20:06 48.83369 6.36700 33835 ft 461 kts
2026-05-05 20:07 48.89714 6.38300 33830 ft 461 kts 10°
2026-05-05 20:07 48.96053 6.39902 33832 ft 462 kts 10°
2026-05-05 20:08 49.02355 6.41500 33831 ft 462 kts 10°
2026-05-05 20:08 49.08718 6.43038 33821 ft 463 kts
2026-05-05 20:09 49.15098 6.42468 33824 ft 463 kts 347°
2026-05-05 20:09 49.21330 6.39876 33822 ft 462 kts 344°
2026-05-05 20:10 49.27484 6.37207 33819 ft 462 kts 345°
2026-05-05 20:10 49.32673 6.35028 33814 ft 461 kts 345°
2026-05-05 20:11 49.38834 6.32477 33805 ft 460 kts 345°
2026-05-05 20:11 49.45020 6.29910 33802 ft 460 kts 345°
2026-05-05 20:12 49.51065 6.26690 33802 ft 460 kts 333°
2026-05-05 20:12 49.56305 6.21173 33808 ft 459 kts 321°
2026-05-05 20:13 49.61330 6.14986 33815 ft 464 kts 321°
2026-05-05 20:13 49.66418 6.08726 33812 ft 474 kts 321°
2026-05-05 20:14 49.71653 6.02349 33812 ft 482 kts 322°
2026-05-05 20:14 49.76960 5.95903 33804 ft 485 kts 322°
2026-05-05 20:15 49.82239 5.89480 33805 ft 485 kts 322°
2026-05-05 20:15 49.87551 5.82995 33803 ft 485 kts 322°
2026-05-05 20:16 49.92858 5.76495 33811 ft 485 kts 322°
2026-05-05 20:16 49.98154 5.69988 33811 ft 485 kts 321°
2026-05-05 20:17 50.03404 5.63519 33816 ft 485 kts 321°
2026-05-05 20:17 50.08695 5.56982 33820 ft 485 kts 321°
2026-05-05 20:18 50.13992 5.50418 33828 ft 485 kts 321°
2026-05-05 20:18 50.19247 5.43887 33829 ft 485 kts 321°
2026-05-05 20:19 50.24525 5.37309 33835 ft 486 kts 321°
2026-05-05 20:19 50.29819 5.30691 33842 ft 486 kts 321°
2026-05-05 20:20 50.35104 5.24066 33847 ft 486 kts 321°
2026-05-05 20:20 50.40355 5.17462 33851 ft 487 kts 321°
2026-05-05 20:21 50.45642 5.10795 33850 ft 487 kts 321°
2026-05-05 20:21 50.50852 5.04206 33841 ft 473 kts 321°
2026-05-05 20:22 50.55991 4.97686 33876 ft 481 kts 321°
2026-05-05 20:22 50.61251 4.90994 33869 ft 489 kts 321°
2026-05-05 20:23 50.66569 4.84208 33811 ft 493 kts 320°
2026-05-05 20:23 50.69262 4.80764 33080 ft 497 kts 321°
2026-05-05 20:23 50.71938 4.77336 32462 ft 493 kts 321°
2026-05-05 20:23 50.74555 4.73978 31835 ft 489 kts 321°
2026-05-05 20:24 50.77196 4.70586 31216 ft 488 kts 321°
2026-05-05 20:24 50.79832 4.67194 30647 ft 489 kts 321°
2026-05-05 20:24 50.82475 4.63787 29980 ft 490 kts 321°
2026-05-05 20:24 50.85123 4.60371 29193 ft 491 kts 321°
2026-05-05 20:25 50.87735 4.56986 28427 ft 491 kts 319°
2026-05-05 20:25 50.90183 4.53239 27664 ft 490 kts 311°
2026-05-05 20:25 50.92259 4.48942 26925 ft 488 kts 302°
2026-05-05 20:25 50.94022 4.44363 26222 ft 487 kts 300°
2026-05-05 20:26 50.95754 4.39737 25522 ft 485 kts 300°
2026-05-05 20:26 50.97451 4.35214 24835 ft 479 kts 300°
2026-05-05 20:26 50.99164 4.30699 24166 ft 473 kts 300°
2026-05-05 20:26 51.00874 4.26233 23508 ft 468 kts 301°
2026-05-05 20:27 51.02565 4.21842 22749 ft 463 kts 301°
2026-05-05 20:27 51.04236 4.17506 22001 ft 458 kts 300°
2026-05-05 20:27 51.05871 4.13253 21280 ft 453 kts 300°
2026-05-05 20:27 51.07509 4.08981 20572 ft 449 kts 300°
2026-05-05 20:28 51.09270 4.04911 19858 ft 445 kts 308°
2026-05-05 20:28 51.11377 4.01319 19179 ft 442 kts 317°
2026-05-05 20:28 51.13791 3.98334 18651 ft 436 kts 324°
2026-05-05 20:28 51.16245 3.95553 18223 ft 428 kts 324°
2026-05-05 20:29 51.18634 3.92790 17739 ft 420 kts 323°
2026-05-05 20:29 51.20966 3.90037 17256 ft 414 kts 324°
2026-05-05 20:29 51.23398 3.87763 16759 ft 408 kts 340°
2026-05-05 20:29 51.26140 3.86783 16304 ft 400 kts 358°
2026-05-05 20:30 51.28900 3.86666 15869 ft 395 kts
2026-05-05 20:30 51.31659 3.86647 15408 ft 396 kts
2026-05-05 20:30 51.34422 3.86641 14972 ft 396 kts
2026-05-05 20:30 51.37170 3.86621 14528 ft 392 kts
2026-05-05 20:31 51.39885 3.86583 14105 ft 387 kts
2026-05-05 20:31 51.42512 3.86532 13826 ft 377 kts
2026-05-05 20:31 51.45102 3.86474 13498 ft 368 kts
2026-05-05 20:31 51.47635 3.86415 13133 ft 360 kts
2026-05-05 20:32 51.50112 3.86356 12789 ft 352 kts
2026-05-05 20:32 51.52545 3.86297 12445 ft 346 kts
2026-05-05 20:32 51.54937 3.86240 12114 ft 339 kts 360°
2026-05-05 20:32 51.57280 3.86183 11774 ft 334 kts 360°
2026-05-05 20:33 51.59586 3.86128 11446 ft 329 kts 360°
2026-05-05 20:33 51.61857 3.86072 11123 ft 324 kts 360°
2026-05-05 20:33 51.64102 3.86018 10801 ft 320 kts 360°
2026-05-05 20:33 51.66288 3.85965 10485 ft 316 kts 360°
2026-05-05 20:34 51.68480 3.85912 10163 ft 312 kts 359°
2026-05-05 20:34 51.70071 3.85874 9939 ft 309 kts
2026-05-05 20:34 51.72173 3.86426 9595 ft 306 kts 21°
2026-05-05 20:34 51.73979 3.88155 9285 ft 301 kts 39°
2026-05-05 20:35 51.75547 3.90367 8979 ft 297 kts 41°
2026-05-05 20:35 51.77070 3.92597 8660 ft 294 kts 42°
2026-05-05 20:35 51.78557 3.94781 8354 ft 291 kts 41°
2026-05-05 20:35 51.80052 3.96969 8051 ft 288 kts 41°
2026-05-05 20:36 51.81521 3.99109 7732 ft 280 kts 41°
2026-05-05 20:36 51.82947 4.01180 7422 ft 272 kts 41°
2026-05-05 20:36 51.84353 4.03218 7130 ft 270 kts 41°
2026-05-05 20:36 51.85742 4.05230 6953 ft 265 kts 41°
2026-05-05 20:37 51.87098 4.07195 6915 ft 258 kts 41°
2026-05-05 20:37 51.88420 4.09110 6622 ft 261 kts 41°
2026-05-05 20:37 51.89765 4.11061 6373 ft 259 kts 41°
2026-05-05 20:37 51.91104 4.13004 6084 ft 257 kts 41°
2026-05-05 20:38 51.92455 4.14876 5801 ft 255 kts 38°
2026-05-05 20:38 51.93830 4.16687 5517 ft 252 kts 38°
2026-05-05 20:38 51.95183 4.18456 5250 ft 248 kts 38°
2026-05-05 20:38 51.96505 4.20186 4997 ft 246 kts 38°
2026-05-05 20:39 51.97829 4.21924 4742 ft 244 kts 39°
2026-05-05 20:39 51.99142 4.23653 4480 ft 241 kts 39°
2026-05-05 20:39 52.00444 4.25371 4237 ft 239 kts 39°
2026-05-05 20:39 52.01723 4.27062 4040 ft 233 kts 39°
2026-05-05 20:40 52.02936 4.28667 3859 ft 222 kts 39°
2026-05-05 20:40 52.04106 4.30217 3659 ft 211 kts 39°
2026-05-05 20:40 52.05177 4.31638 3443 ft 202 kts 39°
2026-05-05 20:40 52.06220 4.33023 3230 ft 194 kts 40°
2026-05-05 20:41 52.07258 4.34401 3025 ft 192 kts 39°
2026-05-05 20:41 52.08291 4.35776 2819 ft 189 kts 39°
2026-05-05 20:41 52.09296 4.37113 2605 ft 184 kts 39°
2026-05-05 20:41 52.10274 4.38415 2408 ft 184 kts 39°
2026-05-05 20:42 52.11265 4.39736 2207 ft 184 kts 39°
2026-05-05 20:42 52.12253 4.41053 2034 ft 183 kts 39°
2026-05-05 20:42 52.13247 4.42379 1979 ft 184 kts 39°
2026-05-05 20:42 52.14227 4.43687 1978 ft 181 kts 39°
2026-05-05 20:43 52.15208 4.44998 1976 ft 182 kts 39°
2026-05-05 20:43 52.16190 4.46309 1966 ft 183 kts 39°
2026-05-05 20:43 52.17175 4.47627 1963 ft 182 kts 39°
2026-05-05 20:43 52.18142 4.48921 1986 ft 181 kts 39°
2026-05-05 20:44 52.19122 4.50233 1978 ft 183 kts 39°
2026-05-05 20:44 52.20097 4.51557 1987 ft 182 kts 43°
2026-05-05 20:44 52.20912 4.53141 1990 ft 183 kts 50°
2026-05-05 20:44 52.21657 4.54805 1980 ft 178 kts 54°
2026-05-05 20:45 52.22926 4.58049 1983 ft 165 kts 56°
2026-05-05 20:45 52.23527 4.59626 1987 ft 166 kts 56°
2026-05-05 20:45 52.24145 4.61247 1829 ft 170 kts 56°
2026-05-05 20:46 52.24758 4.62855 1606 ft 162 kts 56°
2026-05-05 20:46 52.25328 4.64350 1409 ft 148 kts 56°
2026-05-05 20:46 52.25853 4.65724 1210 ft 141 kts 55°
2026-05-05 20:46 52.26354 4.67036 1013 ft 134 kts 55°
2026-05-05 20:47 52.26839 4.68306 825 ft 130 kts 54°
2026-05-05 20:47 52.27316 4.69552 647 ft 132 kts 55°
2026-05-05 20:47 52.27809 4.70838 449 ft 137 kts 54°
2026-05-05 20:47 52.28319 4.72170 269 ft 139 kts 56°
2026-05-05 20:48 52.28827 4.73503 68 ft 137 kts 56°
2026-05-05 20:48 52.29315 4.74770 -1 ft 120 kts 58°
2026-05-05 20:48 52.29676 4.75714 -3 ft 79 kts 58°
2026-05-05 20:48 52.29927 4.76370 -5 ft 45 kts 57°
2026-05-05 20:49 52.30085 4.76587 -3 ft 20 kts 28°
2026-05-05 20:49 52.30185 4.76674 -2 ft 14 kts 28°
2026-05-05 20:49 52.30271 4.76749 -2 ft 14 kts 30°
2026-05-05 20:49 52.30334 4.76882 -2 ft 18 kts 58°
2026-05-05 20:50 52.30411 4.77042 -2 ft 16 kts 18°
2026-05-05 20:50 52.30473 4.77003 -2 ft 15 kts 328°
2026-05-05 20:50 52.30584 4.76888 -2 ft 12 kts 321°
2026-05-05 20:50 52.30630 4.76780 -2 ft 12 kts 320°
2026-05-05 20:51 52.30665 4.76742 -2 ft 5 kts 327°
2026-05-05 20:51 52.30691 4.76703 -2 ft 5 kts 290°
2026-05-05 20:51 52.30681 4.76651 -2 ft 4 kts 249°
2026-05-05 20:51 52.30672 4.76615 -2 ft 2 kts 248°
2026-05-05 20:52 52.30668 4.76597 -2 ft 2 kts 248°
2026-05-05 20:52 52.30667 4.76592 -2 ft 0 kts 248°